Location: Newark
(48.3831°N, 4.1956°E)
Time: 07:19:00
(UTC+00:00)

Envisat - Pass Details

Date: 14 November 2019
Orbit: 764 x 766 km, 98.1° (Epoch: 07 December)

Event Time Altitude Azimuth Distance (km) Brightness Sun altitude
Rises 05:43:56 0° 23° (NNE) 3,243 6.4 -10.8°
Reaches altitude 10° 05:46:36 10° 36° (NE) 2,312 5.8 -10.4°
Maximum altitude 05:50:53 27° 93° (E) 1,456 5.4 -9.7°
Drops below altitude 10° 05:55:07 10° 150° (SSE) 2,296 6.2 -9.1°
Sets 05:57:45 0° 163° (SSE) 3,217 6.8 -8.6°
